Regional Weather Roundup
Issued by NWS

Home | Current Version | Previous Version | Text Only | Print | Product List | Glossary On
Versions: 1 2 3 4 5 6 7 8 9 10 11 12 13 14 15 16 17 18 19 20 21 22 23 24 25 26 27 28 29 30 31 32 33 34 35 36 37 38 39 40 41 42 43 44 45 46 47 48 49 50
000
ASUS42 KTBW 251410
RWRFL
FLORIDA REGIONAL WEATHER ROUNDUP
NATIONAL WEATHER SERVICE TAMPA BAY RUSKIN FL
900 AM EST SUN JAN 25 2015

NOTE: "FAIR" INDICATES FEW OR NO CLOUDS BELOW 12,000 FEET WITH NO
SIGNIFICANT WEATHER AND/OR OBSTRUCTIONS TO VISIBILITY.


FLZ001>010-012>015-112-114-115-251500-
PANHANDLE FLORIDA

CITY           SKY/WX    TMP DP  RH WIND       PRES   REMARKS
PENSACOLA      SUNNY     43  41  93 SW5       30.06R WCI  40
PENSACOLA NAS  SUNNY     45  43  93 SW6       30.06R WCI  42
MILTON NAS     LGT RAIN  41  39  93 S3        30.04S
CRESTVIEW      SUNNY     35  34  96 CALM      30.06R
VALPARAISO     MOSUNNY   42  38  85 CALM      30.06R
MARY ESTHER    SUNNY     45  41  86 VRB2      30.06R
TRI COUNTY     FAIR      38  37  97 CALM      30.06S
PANAMA CITY    FAIR      40  36  86 CALM      30.05S
TYNDALL AFB    SUNNY     45  43  90 SE2       30.07S
APALACHICOLA   SUNNY     50  38  63 CALM      30.08S

STATION/POSITION SKY/WX   TEMP    WIND        PRES    WAVE   SWELL
                          AIR SEA DIR/SP/G            HT/PER HT/PER
                          (F)     (DEG/KT/KT) (MB)    (FT/S) (FT/S)
30.1N   87.6W              56 65  260/ 10/ 12 1017.7R   3/ 5   2/ 5
29.2N   88.2W              58 70  270/ 16/ 19 1018.7F   4/ 7   2/ 7
28.7N   86.0W              61 70  290/  8/ 12 1019.1R   4/ 7   3/ 7
PANAMA CITY BEAC           48 60  340/  3/  4 1017.6F
CAPE SAN BLAS    NOT AVBL
TOWER C                    53      40/  5/  5 1018.9R
28.5N   84.5W              60 69  360/  6/ 10 1019.0R   4/ 8   3/ 8

$$
FLZ011-016>038-118-127-128-134-139-239-251500-
NORTH FLORIDA

CITY           SKY/WX    TMP DP  RH WIND       PRES   REMARKS
MARIANNA       SUNNY     39  36  89 CALM      30.05R
TALLAHASSEE    MOSUNNY   37  32  82 CALM      30.06S
PERRY          SUNNY     39  39 100 CALM      30.08S
CROSS CITY       N/A     43  38  82 CALM      30.10R
LAKE CITY      FAIR      43  36  75 NW3       30.07F
GAINESVILLE    SUNNY     43  36  76 W6        30.10R WCI  39
MAYPORT NAS    MOSUNNY   46  36  68 VRB5      30.07S WCI  44
JACKSONVILLE   MOSUNNY   44  38  79 NW7       30.06F WCI  40
JAX NAS        MOSUNNY   48  34  58 NW7       30.08S WCI  45
JAX CRAIG      SUNNY     46  37  71 NW9       30.07S WCI  41
JAX CECIL      SUNNY     39  37  93 CALM      30.08S
FERNANDINA BEA FAIR      48  39  71 W5        30.05S
ST AUGUSTINE   SUNNY     45  37  73 W3        30.09S

STATION/POSITION SKY/WX   TEMP    WIND        PRES    WAVE   SWELL
                          AIR SEA DIR/SP/G            HT/PER HT/PER
                          (F)     (DEG/KT/KT) (MB)    (FT/S) (FT/S)
SHELL POINT                38     350/  3/  4   N/A
KEATON BEACH               45     110/  2/  2 1019.0S
CEDAR KEY                  46      10/  4/  6 1019.5R
FERNANDINA                 43 57  300/  5/  6 1017.5F
30.7N   81.3W                 58                N/A     2/ 3
MAYPORT                    45 58  310/  7/  9   N/A
31.4N   80.9W              47 55  310/ 10/ 12 1017.2F   2/ 4
ST AUGUSTINE               47     300/  2/  3 1019.1F

$$
FLZ040-043>046-052-053-057-058-063-144-251500-
INTERIOR CENTRAL FLORIDA

CITY           SKY/WX    TMP DP  RH WIND       PRES   REMARKS
OCALA          SUNNY     43  36  75 S5        30.12R WCI  40
THE VILLAGES     N/A     46  39  76 CALM      30.02R
LEESBURG       SUNNY     50  36  58 N6        30.11S
SANFORD        SUNNY     48  40  73 NW6       30.09S
ORLANDO EXEC   SUNNY     49  34  56 N6        30.10R
ORLANDO INTL   MOSUNNY   51  35  54 N10       30.10S
KISSIMMEE      SUNNY     52  43  71 N6        30.10S
WINTER HAVEN   SUNNY     51  37  58 N8        30.10F
LAKELAND       SUNNY     46  39  76 N6        30.10S WCI  43
BARTOW         SUNNY     48  34  57 N10       30.11S WCI  44
OKEECHOBEE     SUNNY     45  45 100 CALM      30.12S

$$
FLZ041-047-054-059-064-141-147-251500-
EAST CENTRAL FLORIDA

CITY           SKY/WX    TMP DP  RH WIND       PRES   REMARKS
ORMOND BEACH   SUNNY     45  37  76 NW5       30.09F WCI  42
DAYTONA BEACH  MOSUNNY   48  38  68 W6        30.10R
DELAND         SUNNY    N/A N/A N/A NW7       30.10S
NEW SMYRNA BEA SUNNY     46  39  76 W7        30.10S WCI  43
JFK SPACE CTR  SUNNY     49  39  67 N10       30.08R
CAPE CANAVERAL SUNNY     50  38  63 NW9       30.08R
PATRICK AFB    SUNNY     52  39  61 N10       30.08F
MELBOURNE      SUNNY     50  38  63 NW6       30.09S
VERO BEACH     SUNNY     50  42  74 NW5       30.10F
FT PIERCE      SUNNY     49  43  80 NW7       30.10S
STUART         MOSUNNY   50  39  66 NW10      30.12R

STATION/POSITION SKY/WX   TEMP    WIND        PRES    WAVE   SWELL
                          AIR SEA DIR/SP/G            HT/PER HT/PER
                          (F)     (DEG/KT/KT) (MB)    (FT/S) (FT/S)
28.5N   80.2W              56 71  330/ 14/ 17 1018.0R
28.9N   78.5W              65 76  330/  8/ 12 1017.1R   6/ 8   5/ 8
TRIDENT PIER               51 65  320/  8/ 12 1018.2R
28.4N   80.5W                 64                N/A     2/ 8
27.6N   80.2W                 73                N/A     4/ 9

$$
FLZ050-056-061-142-242-148-248-149-249-151-251-155-255-
160-260-251500-
WEST CENTRAL FLORIDA

CITY           SKY/WX    TMP DP  RH WIND       PRES   REMARKS
CRYSTAL RIVER  FAIR      43  36  75 CALM      30.12S
INVERNESS      FAIR      43  41  93 CALM      30.13S
BROOKSVILLE    SUNNY     48  39  71 NE5       30.13R
ZEPHYRHILLS    FAIR      45  43  93 CALM      30.11F
CLEARWATER     SUNNY     53  42  66 NE7       30.11R
TAMPA INTL     MOSUNNY   51  36  56 NE7       30.11R
TAMPA EXEC     SUNNY     50  43  76 N6        30.11R
PLANT CITY       N/A    N/A N/A N/A MISG        N/A
MACDILL AFB    SUNNY     52  42  70 N8        30.11R
PETER O KNIGHT SUNNY     52  39  62 NE10      30.11R
ST PETERSBURG  SUNNY     54  42  64 NE9       30.10R
SARASOTA       SUNNY     52  43  71 NE10      30.09R
VENICE         FAIR      54  48  82 E6        30.11S

STATION/POSITION SKY/WX   TEMP    WIND        PRES    WAVE   SWELL
                          AIR SEA DIR/SP/G            HT/PER HT/PER
                          (F)     (DEG/KT/KT) (MB)    (FT/S) (FT/S)
CEDAR KEY                  46      10/  4/  6 1019.5R
28.5N   84.5W              60 69  360/  6/ 10 1019.0R   4/ 8   3/ 8
27.3N   84.3W                 73                N/A     5/ 8   2/11
CLEARWATER BEACH           52 62   70/  7/  9 1018.9R
MIDDLE TAMPA BAY           54      60/ 10/ 12 1019.3R
VENICE                     55 65   60/  5/  6 1019.0R

$$
FLZ066-069-070-075>078-162-262-165-265-251500-
SOUTHWEST FLORIDA AND KEYS

CITY           SKY/WX    TMP DP  RH WIND       PRES   REMARKS
PUNTA GORDA    SUNNY     51  47  86 E5        30.13R
FT MYERS       PTSUNNY   53  47  79 E3        30.11S
SOUTHWEST INTL SUNNY     53  46  77 NE8       30.12R
NAPLES         SUNNY     53  47  79 NE7       30.10S
MARCO ISLAND   SUNNY     54  45  71 NE10      30.11S
IMMOKALEE      SUNNY    N/A N/A N/A NE6       30.12S
MARATHON       SUNNY     62  56  80 N12       30.09R
KEY WEST NAS   PTSUNNY   66  51  58 N13       30.09R
KEY WEST INTL  CLOUDY    65  53  65 N9        30.09R

STATION/POSITION SKY/WX   TEMP    WIND        PRES    WAVE   SWELL
                          AIR SEA DIR/SP/G            HT/PER HT/PER
                          (F)     (DEG/KT/KT) (MB)    (FT/S) (FT/S)
VENICE                     55 65   60/  5/  6 1019.0R
NAPLES                     53 75   80/  4/  7 1019.8F
26.0N   85.6W              66 73  300/ 10/ 17 1019.2R   6/10   5/10
DRY TORTUGAS               65     360/ 12/ 14 1018.9R
NW FL BAY                  56      50/ 16/ 21 1018.7R
SAND KEY                   65      10/ 12/ 17 1018.9R
SOMBRERO KEY               61      10/ 15/ 17 1019.5R
LONG KEY                   59 70   10/ 14/ 17 1019.4R
MOLASSES REEF              57 74  360/ 16/ 19 1018.8R

$$
FLZ067-068-071>074-168-172>174-251500-
SOUTHEAST FLORIDA

CITY           SKY/WX    TMP DP  RH WIND       PRES   REMARKS
W PALM BEACH   MOSUNNY   53  40  61 NW14      30.09R
FT LAUDER-EXEC SUNNY     54  39  57 N13       30.10S
FT LAUDERDALE  MOSUNNY   53  40  61 N12       30.10R
POMPANO BEACH  SUNNY     56  37  49 N17       30.10S
PEMBROKE PINES SUNNY     54  39  57 N13       30.12R
OPA LOCKA      SUNNY     54  38  54 N14       30.11R
MIAMI          MOSUNNY   56  40  55 N7        30.11R
WEST KENDALL   SUNNY     56  47  71 N13       30.11R
HOMESTEAD      SUNNY     55  49  81 N15       30.10R

STATION/POSITION SKY/WX   TEMP    WIND        PRES    WAVE   SWELL
                          AIR SEA DIR/SP/G            HT/PER HT/PER
                          (F)     (DEG/KT/KT) (MB)    (FT/S) (FT/S)
PORT EVERGLADES            53     320/ 11/ 15 1018.8
VIRGINIA KEY               54 70  340/  8/ 15 1019.5R
LAKE WORTH                 52 73  330/ 12/ 17 1018.8R


USA.gov is the U.S. government's official web portal to all federal, state and local government web resources and services.